When you browse on this site, cookies collect data to enhance your experience and personalize the content and advertising you see.
Visit our Privacy Policy to learn more. By continuing to use the site, you agree to this use of cookies and data.
  • In Romania
  • List of Countries
  • For 7 days
  • Water Temperature
  • Satellite Maps
  • Weather Map
  • Weather Widgets
  • user-avatar
    Login

    Hourly Weather Turlakovo

    Today, 21 March, Thursday

    Time Temperature Precipitation Wind Pressure Humidity
    00:00 -1°C° 0.3 mm 3 mps 749 mmHg 81%
    01:00 0°C° 0.3 mm 3 mps 748 mmHg 83%
    02:00 -1°C° 0 mm 3 mps 747 mmHg 88%
    03:00 0°C° 0.6 mm 3 mps 747 mmHg 89%
    04:00 0°C° 0.6 mm 3 mps 747 mmHg 90%
    05:00 0°C° 0.6 mm 3 mps 747 mmHg 90%
    06:00 0°C° 0 mm 3 mps 747 mmHg 89%
    07:00 +1°C° 0 mm 3 mps 747 mmHg 88%
    08:00 0°C° 0 mm 4 mps 748 mmHg 85%
    09:00 +1°C° 0 mm 4 mps 748 mmHg 82%
    10:00 +3°C° 0 mm 4 mps 748 mmHg 79%
    11:00 +4°C° 0 mm 4 mps 748 mmHg 76%
    12:00 +4°C° 0 mm 4 mps 748 mmHg 72%
    13:00 +5°C° 0 mm 4 mps 748 mmHg 68%
    14:00 +6°C° 0 mm 4 mps 748 mmHg 63%
    15:00 +7°C° 0 mm 3 mps 748 mmHg 66%
    16:00 +5°C° 0 mm 3 mps 748 mmHg 69%
    17:00 +6°C° 0 mm 2 mps 748 mmHg 73%
    18:00 +5°C° 0 mm 2 mps 748 mmHg 77%
    19:00 +4°C° 0 mm 2 mps 748 mmHg 81%
    20:00 +2°C° 0 mm 2 mps 747 mmHg 86%
    21:00 +3°C° 0.1 mm 2 mps 747 mmHg 86%
    22:00 +3°C° 0.1 mm 2 mps 747 mmHg 87%
    23:00 +3°C° 0.1 mm 2 mps 746 mmHg 87%

    Tomorrow, 22 March, Friday

    Time Temperature Precipitation Wind Pressure Humidity
    00:00 +2°C° 0.3 mm 3 mps 745 mmHg 89%
    01:00 +3°C° 0.3 mm 3 mps 745 mmHg 90%
    02:00 +3°C° 0.3 mm 4 mps 744 mmHg 91%
    03:00 +3°C° 0.6 mm 4 mps 743 mmHg 92%
    04:00 +4°C° 0.6 mm 4 mps 742 mmHg 92%
    05:00 +3°C° 0.6 mm 5 mps 742 mmHg 92%
    06:00 +3°C° 0.4 mm 5 mps 742 mmHg 87%
    07:00 +2°C° 0.4 mm 6 mps 742 mmHg 82%
    08:00 +2°C° 0.4 mm 7 mps 742 mmHg 77%
    09:00 0°C° 0.1 mm 7 mps 743 mmHg 71%
    10:00 0°C° 0.1 mm 8 mps 744 mmHg 64%
    11:00 0°C° 0.1 mm 8 mps 745 mmHg 57%
    12:00 0°C° 0 mm 7 mps 745 mmHg 59%
    13:00 0°C° 0 mm 7 mps 746 mmHg 62%
    14:00 -1°C° 0 mm 7 mps 746 mmHg 64%
    15:00 -1°C° 0.1 mm 7 mps 746 mmHg 66%
    16:00 -1°C° 0.1 mm 7 mps 747 mmHg 68%
    17:00 -2°C° 0.1 mm 7 mps 747 mmHg 70%
    18:00 -2°C° 0 mm 6 mps 747 mmHg 71%
    19:00 -2°C° 0 mm 6 mps 748 mmHg 72%
    20:00 -2°C° 0 mm 6 mps 748 mmHg 74%
    21:00 -2°C° 0 mm 6 mps 749 mmHg 75%
    22:00 -2°C° 0 mm 6 mps 749 mmHg 77%
    23:00 -3°C° 0 mm 6 mps 749 mmHg 79%

    Day after tomorrow, 23 March, Saturday

    Time Temperature Precipitation Wind Pressure Humidity
    00:00 -2°C° 0 mm 5 mps 750 mmHg 80%
    01:00 -2°C° 0 mm 5 mps 750 mmHg 82%
    02:00 -2°C° 0 mm 5 mps 750 mmHg 83%
    03:00 -2°C° 0 mm 4 mps 751 mmHg 85%
    04:00 -3°C° 0 mm 4 mps 751 mmHg 86%
    05:00 -3°C° 0 mm 4 mps 751 mmHg 87%
    06:00 -2°C° 0 mm 3 mps 752 mmHg 86%
    07:00 -2°C° 0 mm 3 mps 752 mmHg 85%
    08:00 -1°C° 0 mm 3 mps 752 mmHg 84%
    09:00 +1°C° 0 mm 2 mps 752 mmHg 81%
    10:00 +2°C° 0 mm 2 mps 752 mmHg 77%
    11:00 +4°C° 0 mm 1 mps 752 mmHg 73%
    12:00 +4°C° 0 mm 1 mps 752 mmHg 70%
    13:00 +5°C° 0 mm 1 mps 751 mmHg 67%
    14:00 +6°C° 0 mm 1 mps 751 mmHg 64%
    15:00 +6°C° 0 mm 1 mps 750 mmHg 66%
    16:00 +6°C° 0 mm 1 mps 750 mmHg 68%
    17:00 +5°C° 0 mm 1 mps 749 mmHg 70%
    18:00 +3°C° 0 mm 2 mps 749 mmHg 73%
    19:00 +2°C° 0 mm 2 mps 749 mmHg 77%
    20:00 0°C° 0 mm 3 mps 748 mmHg 80%
    21:00 +1°C° 0.1 mm 3 mps 748 mmHg 77%
    22:00 +1°C° 0.1 mm 3 mps 747 mmHg 74%
    23:00 +1°C° 0.1 mm 3 mps 746 mmHg 71%

    24 March, Sunday

    Time Temperature Precipitation Wind Pressure Humidity
    00:00 +1°C° 1.1 mm 3 mps 746 mmHg 74%
    01:00 +1°C° 1.1 mm 3 mps 745 mmHg 77%
    02:00 +1°C° 1.1 mm 3 mps 745 mmHg 80%
    03:00 +1°C° 0.1 mm 3 mps 744 mmHg 84%
    04:00 +1°C° 0.1 mm 3 mps 744 mmHg 87%
    05:00 +1°C° 0.1 mm 3 mps 744 mmHg 91%
    06:00 +2°C° 0 mm 3 mps 744 mmHg 89%
    07:00 +2°C° 0 mm 3 mps 744 mmHg 88%
    08:00 +1°C° 0 mm 4 mps 744 mmHg 86%
    09:00 +1°C° 0 mm 4 mps 744 mmHg 77%
    10:00 +3°C° 0 mm 4 mps 744 mmHg 69%
    11:00 +3°C° 0 mm 5 mps 744 mmHg 61%
    12:00 +3°C° 0 mm 5 mps 744 mmHg 57%
    13:00 +3°C° 0 mm 5 mps 744 mmHg 54%
    14:00 +5°C° 0 mm 5 mps 744 mmHg 51%
    15:00 +3°C° 0 mm 5 mps 744 mmHg 53%
    16:00 +3°C° 0 mm 4 mps 744 mmHg 56%
    17:00 +3°C° 0 mm 3 mps 744 mmHg 58%
    18:00 +1°C° 0 mm 3 mps 744 mmHg 63%
    19:00 +1°C° 0 mm 2 mps 745 mmHg 67%
    20:00 -1°C° 0 mm 2 mps 745 mmHg 72%
    21:00 -2°C° 0 mm 2 mps 745 mmHg 73%
    22:00 -2°C° 0 mm 2 mps 745 mmHg 74%
    23:00 -2°C° 0 mm 2 mps 745 mmHg 75%

    25 March, Monday

    Time Temperature Precipitation Wind Pressure Humidity
    00:00 -3°C° 0 mm 2 mps 745 mmHg 76%
    01:00 -3°C° 0 mm 2 mps 744 mmHg 77%
    02:00 -3°C° 0 mm 2 mps 744 mmHg 78%
    03:00 -3°C° 0 mm 2 mps 744 mmHg 79%
    04:00 -3°C° 0 mm 2 mps 744 mmHg 80%
    05:00 -1°C° 0 mm 1 mps 744 mmHg 82%
    06:00 0°C° 0 mm 1 mps 744 mmHg 77%
    07:00 -2°C° 0 mm 2 mps 743 mmHg 73%
    08:00 -1°C° 0 mm 2 mps 743 mmHg 69%
    09:00 +2°C° 0 mm 2 mps 743 mmHg 65%
    10:00 +3°C° 0 mm 2 mps 743 mmHg 61%
    11:00 +3°C° 0 mm 3 mps 742 mmHg 57%
    12:00 +3°C° 0 mm 3 mps 742 mmHg 55%
    13:00 +4°C° 0 mm 3 mps 741 mmHg 53%
    14:00 +4°C° 0 mm 3 mps 741 mmHg 51%
    15:00 +4°C° 0 mm 3 mps 740 mmHg 54%
    16:00 +4°C° 0 mm 2 mps 740 mmHg 57%
    17:00 +4°C° 0 mm 2 mps 739 mmHg 61%
    18:00 +2°C° 0 mm 2 mps 739 mmHg 66%
    19:00 +1°C° 0 mm 2 mps 739 mmHg 72%
    20:00 -1°C° 0 mm 2 mps 738 mmHg 77%
    21:00 -1°C° 0.1 mm 2 mps 738 mmHg 79%
    22:00 -1°C° 0.1 mm 2 mps 738 mmHg 80%
    23:00 -1°C° 0.1 mm 2 mps 737 mmHg 82%

    26 March, Tuesday

    Time Temperature Precipitation Wind Pressure Humidity
    00:00 -1°C° 0.6 mm 2 mps 737 mmHg 85%
    01:00 -1°C° 0.6 mm 2 mps 737 mmHg 88%
    02:00 -1°C° 0.6 mm 2 mps 737 mmHg 91%
    03:00 -1°C° 0.2 mm 2 mps 737 mmHg 92%
    04:00 +1°C° 0.2 mm 1 mps 737 mmHg 94%
    05:00 0°C° 0.2 mm 1 mps 737 mmHg 95%
    06:00 +1°C° 0.1 mm 1 mps 737 mmHg 94%
    07:00 +1°C° 0.1 mm 1 mps 737 mmHg 93%
    08:00 +2°C° 0.1 mm 1 mps 738 mmHg 91%
    09:00 +1°C° 0.3 mm 2 mps 738 mmHg 89%
    10:00 +1°C° 0.3 mm 3 mps 738 mmHg 86%
    11:00 +1°C° 0.3 mm 3 mps 738 mmHg 84%
    12:00 +1°C° 0.1 mm 4 mps 739 mmHg 82%
    13:00 +1°C° 0.1 mm 4 mps 739 mmHg 81%
    14:00 +1°C° 0.1 mm 4 mps 739 mmHg 79%
    15:00 +1°C° 0.1 mm 4 mps 740 mmHg 80%
    16:00 +1°C° 0.1 mm 4 mps 740 mmHg 80%
    17:00 +1°C° 0.1 mm 4 mps 741 mmHg 81%
    18:00 0°C° 0 mm 4 mps 741 mmHg 82%
    19:00 0°C° 0 mm 4 mps 742 mmHg 84%
    20:00 -1°C° 0 mm 4 mps 743 mmHg 85%
    21:00 -1°C° 0 mm 4 mps 743 mmHg 87%
    22:00 -2°C° 0 mm 4 mps 743 mmHg 89%
    23:00 -2°C° 0 mm 4 mps 744 mmHg 90%
    Show more